This is the latest recevied weather packets stored in our database for station/object N7CEE-2. If no packets are shown the sender has not sent any weather packets the latest 10 day(s).
| Time | Temp. | Humidity | Pressure | Rain* | Wind** | Luminosity | Snow |
|---|---|---|---|---|---|---|---|
| 1777517062 | 26.67° C | 19% | 1013.3 hPa | 0 mm | - | 0 W/m² | - |
| 1777516759 | 26.67° C | 19% | 1013.3 hPa | 0 mm | - | 0 W/m² | - |
| 1777516455 | 27.22° C | 19% | 1013.2 hPa | 0 mm | - | 0 W/m² | - |
| 1777516150 | 27.22° C | 19% | 1012.9 hPa | 0 mm | - | 0 W/m² | - |
| 1777515848 | 27.22° C | 18% | 1013.1 hPa | 0 mm | - | 0 W/m² | - |
| 1777515544 | 27.78° C | 18% | 1013 hPa | 0 mm | - | 1 W/m² | - |
| 1777515241 | 27.78° C | 18% | 1012.9 hPa | 0 mm | - | 2 W/m² | - |
| 1777514937 | 27.78° C | 17% | 1012.9 hPa | 0 mm | - | 3 W/m² | - |
| 1777514633 | 27.78° C | 17% | 1013 hPa | 0 mm | - | 3 W/m² | - |
| 1777514331 | 27.78° C | 17% | 1012.8 hPa | 0 mm | - | 6 W/m² | - |
| 1777514027 | 27.78° C | 17% | 1012.8 hPa | 0 mm | - | 9 W/m² | - |
| 1777513725 | 28.33° C | 17% | 1012.8 hPa | 0 mm | - | 13 W/m² | - |
| 1777513422 | 28.33° C | 17% | 1013 hPa | 0 mm | - | 17 W/m² | - |
| 1777513118 | 28.33° C | 17% | 1012.7 hPa | 0 mm | - | 19 W/m² | - |
| 1777512814 | 28.33° C | 16% | 1012.7 hPa | 0 mm | - | 30 W/m² | - |
| 1777512511 | 28.33° C | 16% | 1012.8 hPa | 0 mm | - | 31 W/m² | - |
| 1777512207 | 28.33° C | 16% | 1012.7 hPa | 0 mm | - | 50 W/m² | - |
| 1777511905 | 28.33° C | 16% | 1013 hPa | 0 mm | - | 45 W/m² | - |
| 1777511603 | 28.33° C | 16% | 1013.1 hPa | 0 mm | - | 49 W/m² | - |
| 1777511300 | 28.89° C | 16% | 1013.1 hPa | 0 mm | - | 49 W/m² | - |
| 1777510996 | 28.89° C | 15% | 1013.3 hPa | 0 mm | - | 70 W/m² | - |
| 1777510693 | 28.89° C | 15% | 1013.2 hPa | 0 mm | - | 69 W/m² | - |
| 1777510388 | 28.89° C | 16% | 1013.2 hPa | 0 mm | - | 70 W/m² | - |
| 1777510085 | 28.89° C | 16% | 1013.3 hPa | 0 mm | - | 81 W/m² | - |
| 1777509782 | 28.89° C | 16% | 1013.1 hPa | 0 mm | - | 113 W/m² | - |
* Rain latest hour (hover to see other rain measurements)
** Current wind speed in m/s (hover to see current wind gust speed)